Location: Gellin
(53.4498°N, 14.3207°E)
Time: 01:53:15
(UTC+00:00)

Terra - Pass Details

Date: 03 March 2021
Orbit: 701 x 703 km, 98.2° (Epoch: 11 April)

Event Time Altitude Azimuth Distance (km) Brightness Sun altitude
Exits shadow 21:21:35 20° 329° (NNW) 1,602 4.2 -37.7°
Drops below altitude 10° 21:23:08 10° 337° (NNW) 2,185 5.0 -37.9°
Sets 21:25:28 0° 342° (NNW) 3,108 6.0 -38.1°
